Astrid — OFLT — position and weather

sailwx.info

Track history (hours):
 
Tides and Currents Weather Stations Pressure Air Temp Water Temp Dewpoint Dewpoint Depression Visibility Wind Speed Wind Dir Waves Ship Positions

Astrid

Last reported at 2014-Jul-30 04:17 UTC. Time now 2014-Jul-30 05:06 UTC.
Position N 59°57' E 023°48'.

Length 25 m; draft 2.3 m.

Type: Sailing vessel. MMSI: 230998670.

Date/timePositionNaut miles runAvg speedWind from/ knotsBaromVisibWave heightAir tempDewpointWater temp
2014-Jul-30 04:17N 59°57' E 023°48'0 0.0
2014-Jul-30 03:32N 59°57' E 023°48'0 0.0
2014-Jul-30 02:29N 59°57' E 023°48'0 0.0
2014-Jul-30 01:23N 59°57' E 023°48'0 0.0
2014-Jul-30 00:29N 59°57' E 023°48'0 0.0
2014-Jul-29 23:23N 59°57' E 023°48'0 0.0
2014-Jul-29 22:29N 59°57' E 023°48'0 0.0
2014-Jul-29 21:29N 59°57' E 023°48'0 0.0
2014-Jul-29 20:29N 59°57' E 023°48'0 0.0
2014-Jul-29 19:29N 59°57' E 023°48'0 0.0
2014-Jul-29 18:29N 59°57' E 023°48'0 0.0
2014-Jul-29 17:29N 59°57' E 023°48'0 0.0
2014-Jul-29 16:32N 59°57' E 023°48'0 0.0
2014-Jul-29 15:29N 59°57' E 023°48'0 0.0
2014-Jul-29 14:33N 59°57' E 023°48'1 0.8
2014-Jul-29 13:32N 59°57' E 023°46'3 3.2
2014-Jul-29 12:33N 59°54' E 023°44'4 4.1
2014-Jul-29 11:33N 59°52' E 023°37'2 2.0
2014-Jul-29 10:20N 59°50' E 023°34'0 0.0
2014-Jul-29 09:33N 59°50' E 023°34'0 0.0
2014-Jul-29 08:26N 59°50' E 023°34'0 0.0
2014-Jul-29 07:20N 59°50' E 023°34'0 0.0
2014-Jul-29 06:32N 59°50' E 023°34'0 0.0
2014-Jul-29 05:32N 59°50' E 023°34'0 0.0
2014-Jul-29 04:26N 59°50' E 023°34'0 0.0
2014-Jul-29 03:32N 59°50' E 023°34'0 0.0
2014-Jul-29 02:32N 59°50' E 023°34'0 0.0
2014-Jul-29 01:32N 59°50' E 023°34'0 0.0
2014-Jul-29 00:32N 59°50' E 023°34'0 0.0
2014-Jul-28 23:32N 59°50' E 023°34'0 0.0
2014-Jul-28 22:20N 59°50' E 023°34'0 0.0
2014-Jul-28 21:32N 59°50' E 023°34'0 0.0
2014-Jul-28 20:26N 59°50' E 023°34'0 0.0
2014-Jul-28 19:23N 59°50' E 023°34'0 0.0
2014-Jul-28 18:32N 59°50' E 023°34'0 0.0
2014-Jul-28 17:32N 59°50' E 023°34'0 0.0
2014-Jul-28 16:32N 59°50' E 023°34'0 0.0
2014-Jul-28 15:32N 59°50' E 023°34'0 0.0
2014-Jul-28 14:26N 59°50' E 023°34'0 0.4
2014-Jul-28 13:33N 59°50' E 023°34'3 3.3
2014-Jul-28 12:33N 59°50' E 023°27'2 0.3
2014-Jul-28 06:24N 59°52' E 023°24'0 0.0
2014-Jul-28 05:12N 59°52' E 023°24'0 0.0
2014-Jul-28 04:33N 59°52' E 023°24'0 0.0
2014-Jul-28 03:33N 59°52' E 023°24'0 0.0
2014-Jul-28 02:30N 59°52' E 023°24'0 0.0
2014-Jul-28 01:33N 59°52' E 023°24'0 0.0
2014-Jul-28 00:33N 59°52' E 023°24'0 0.0
2014-Jul-27 23:30N 59°52' E 023°24'0 0.0
2014-Jul-27 22:30N 59°52' E 023°24'0 0.0
2014-Jul-27 21:33N 59°52' E 023°24'0 0.0
2014-Jul-27 20:33N 59°52' E 023°24'0 0.0
2014-Jul-27 19:30N 59°52' E 023°24'0 0.0
2014-Jul-27 18:30N 59°52' E 023°24'0 0.0
2014-Jul-27 17:32N 59°52' E 023°24'3 2.7
2014-Jul-27 16:32N 59°51' E 023°19'4 3.2
2014-Jul-27 15:23N 59°48' E 023°14'9 4.7
2014-Jul-27 13:33N 59°49' E 022°56'1 0.5
2014-Jul-27 12:12N 59°48' E 022°55'3 4.5
2014-Jul-27 11:27N 59°52' E 022°56'6 5.4
2014-Jul-27 10:19N 59°56' E 023°04'1 0.7
2014-Jul-27 09:33N 59°56' E 023°05'8 0.9
2014-Jul-27 01:31N 59°49' E 022°57'0 0.0
2014-Jul-27 00:19N 59°49' E 022°57'0 0.0
2014-Jul-26 23:31N 59°49' E 022°57'0 0.0
2014-Jul-26 22:19N 59°49' E 022°57'0 0.0
2014-Jul-26 21:19N 59°49' E 022°57'0 0.0
2014-Jul-26 20:31N 59°49' E 022°57'0 0.0
2014-Jul-26 19:28N 59°49' E 022°57'1 0.0
2014-Jul-25 04:24N 59°49' E 022°58'0 0.0
2014-Jul-25 03:30N 59°49' E 022°58'0 0.0
2014-Jul-25 02:27N 59°49' E 022°58'0 0.0
2014-Jul-25 01:21N 59°49' E 022°58'0 0.0
2014-Jul-25 00:27N 59°49' E 022°58'0 0.0
2014-Jul-24 22:30N 59°49' E 022°58'0 0.0
2014-Jul-24 21:27N 59°49' E 022°58'0 0.0
2014-Jul-24 20:30N 59°49' E 022°58'20 0.5
2014-Jul-23 05:11N 59°51' E 022°19'25 1.3
2014-Jul-22 10:26N 59°49' E 023°09'5 5.9
2014-Jul-22 09:33N 59°51' E 023°18'3 2.6
2014-Jul-22 08:33N 59°51' E 023°23'0 0.0
2014-Jul-21 22:24N 59°52' E 023°23'3 4.0
2014-Jul-21 21:33N 59°51' E 023°30'7 6.6
2014-Jul-21 20:33N 59°54' E 023°42'2 6.9
2014-Jul-21 20:18N 59°55' E 023°45'6 6.2
2014-Jul-21 19:19N 59°55' E 023°57'22 5.8
2014-Jul-21 15:33N 60°02' E 024°39'7 6.6
2014-Jul-21 14:33N 60°07' E 024°47'5 4.9
2014-Jul-21 13:33N 60°09' E 024°57'2 0.5
2014-Jul-21 09:33N 60°10' E 024°60'4 3.9
2014-Jul-21 08:33N 60°06' E 024°58'4 3.8
2014-Jul-21 07:33N 60°10' E 024°59'  
Track history (hours):
 
Tides and Currents Weather Stations Pressure Air Temp Water Temp Dewpoint Dewpoint Depression Visibility Wind Speed Wind Dir Waves Ship Positions

Astrid

Last reported at 2014-Jul-30 04:17 UTC. Time now 2014-Jul-30 05:06 UTC.
Position N 59°57' E 023°48'.

Length 25 m; draft 2.3 m.

Type: Sailing vessel. MMSI: 230998670.

Date/timePositionNaut miles runAvg speedWind from/ knotsBaromVisibWave heightAir tempDewpointWater temp
2014-Jul-30 04:17N 59°57' E 023°48'0 0.0
2014-Jul-30 03:32N 59°57' E 023°48'0 0.0
2014-Jul-30 02:29N 59°57' E 023°48'0 0.0
2014-Jul-30 01:23N 59°57' E 023°48'0 0.0
2014-Jul-30 00:29N 59°57' E 023°48'0 0.0
2014-Jul-29 23:23N 59°57' E 023°48'0 0.0
2014-Jul-29 22:29N 59°57' E 023°48'0 0.0
2014-Jul-29 21:29N 59°57' E 023°48'0 0.0
2014-Jul-29 20:29N 59°57' E 023°48'0 0.0
2014-Jul-29 19:29N 59°57' E 023°48'0 0.0
2014-Jul-29 18:29N 59°57' E 023°48'0 0.0
2014-Jul-29 17:29N 59°57' E 023°48'0 0.0
2014-Jul-29 16:32N 59°57' E 023°48'0 0.0
2014-Jul-29 15:29N 59°57' E 023°48'0 0.0
2014-Jul-29 14:33N 59°57' E 023°48'1 0.8
2014-Jul-29 13:32N 59°57' E 023°46'3 3.2
2014-Jul-29 12:33N 59°54' E 023°44'4 4.1
2014-Jul-29 11:33N 59°52' E 023°37'2 2.0
2014-Jul-29 10:20N 59°50' E 023°34'0 0.0
2014-Jul-29 09:33N 59°50' E 023°34'0 0.0
2014-Jul-29 08:26N 59°50' E 023°34'0 0.0
2014-Jul-29 07:20N 59°50' E 023°34'0 0.0
2014-Jul-29 06:32N 59°50' E 023°34'0 0.0
2014-Jul-29 05:32N 59°50' E 023°34'0 0.0
2014-Jul-29 04:26N 59°50' E 023°34'0 0.0
2014-Jul-29 03:32N 59°50' E 023°34'0 0.0
2014-Jul-29 02:32N 59°50' E 023°34'0 0.0
2014-Jul-29 01:32N 59°50' E 023°34'0 0.0
2014-Jul-29 00:32N 59°50' E 023°34'0 0.0
2014-Jul-28 23:32N 59°50' E 023°34'0 0.0
2014-Jul-28 22:20N 59°50' E 023°34'0 0.0
2014-Jul-28 21:32N 59°50' E 023°34'0 0.0
2014-Jul-28 20:26N 59°50' E 023°34'0 0.0
2014-Jul-28 19:23N 59°50' E 023°34'0 0.0
2014-Jul-28 18:32N 59°50' E 023°34'0 0.0
2014-Jul-28 17:32N 59°50' E 023°34'0 0.0
2014-Jul-28 16:32N 59°50' E 023°34'0 0.0
2014-Jul-28 15:32N 59°50' E 023°34'0 0.0
2014-Jul-28 14:26N 59°50' E 023°34'0 0.4
2014-Jul-28 13:33N 59°50' E 023°34'3 3.3
2014-Jul-28 12:33N 59°50' E 023°27'2 0.3
2014-Jul-28 06:24N 59°52' E 023°24'0 0.0
2014-Jul-28 05:12N 59°52' E 023°24'0 0.0
2014-Jul-28 04:33N 59°52' E 023°24'0 0.0
2014-Jul-28 03:33N 59°52' E 023°24'0 0.0
2014-Jul-28 02:30N 59°52' E 023°24'0 0.0
2014-Jul-28 01:33N 59°52' E 023°24'0 0.0
2014-Jul-28 00:33N 59°52' E 023°24'0 0.0
2014-Jul-27 23:30N 59°52' E 023°24'0 0.0
2014-Jul-27 22:30N 59°52' E 023°24'0 0.0
2014-Jul-27 21:33N 59°52' E 023°24'0 0.0
2014-Jul-27 20:33N 59°52' E 023°24'0 0.0
2014-Jul-27 19:30N 59°52' E 023°24'0 0.0
2014-Jul-27 18:30N 59°52' E 023°24'0 0.0
2014-Jul-27 17:32N 59°52' E 023°24'3 2.7
2014-Jul-27 16:32N 59°51' E 023°19'4 3.2
2014-Jul-27 15:23N 59°48' E 023°14'9 4.7
2014-Jul-27 13:33N 59°49' E 022°56'1 0.5
2014-Jul-27 12:12N 59°48' E 022°55'3 4.5
2014-Jul-27 11:27N 59°52' E 022°56'6 5.4
2014-Jul-27 10:19N 59°56' E 023°04'1 0.7
2014-Jul-27 09:33N 59°56' E 023°05'8 0.9
2014-Jul-27 01:31N 59°49' E 022°57'0 0.0
2014-Jul-27 00:19N 59°49' E 022°57'0 0.0
2014-Jul-26 23:31N 59°49' E 022°57'0 0.0
2014-Jul-26 22:19N 59°49' E 022°57'0 0.0
2014-Jul-26 21:19N 59°49' E 022°57'0 0.0
2014-Jul-26 20:31N 59°49' E 022°57'0 0.0
2014-Jul-26 19:28N 59°49' E 022°57'1 0.0
2014-Jul-25 04:24N 59°49' E 022°58'0 0.0
2014-Jul-25 03:30N 59°49' E 022°58'0 0.0
2014-Jul-25 02:27N 59°49' E 022°58'0 0.0
2014-Jul-25 01:21N 59°49' E 022°58'0 0.0
2014-Jul-25 00:27N 59°49' E 022°58'0 0.0
2014-Jul-24 22:30N 59°49' E 022°58'0 0.0
2014-Jul-24 21:27N 59°49' E 022°58'0 0.0
2014-Jul-24 20:30N 59°49' E 022°58'20 0.5
2014-Jul-23 05:11N 59°51' E 022°19'25 1.3
2014-Jul-22 10:26N 59°49' E 023°09'5 5.9
2014-Jul-22 09:33N 59°51' E 023°18'3 2.6
2014-Jul-22 08:33N 59°51' E 023°23'0 0.0
2014-Jul-21 22:24N 59°52' E 023°23'3 4.0
2014-Jul-21 21:33N 59°51' E 023°30'7 6.6
2014-Jul-21 20:33N 59°54' E 023°42'2 6.9
2014-Jul-21 20:18N 59°55' E 023°45'6 6.2
2014-Jul-21 19:19N 59°55' E 023°57'22 5.8
2014-Jul-21 15:33N 60°02' E 024°39'7 6.6
2014-Jul-21 14:33N 60°07' E 024°47'5 4.9
2014-Jul-21 13:33N 60°09' E 024°57'2 0.5
2014-Jul-21 09:33N 60°10' E 024°60'4 3.9
2014-Jul-21 08:33N 60°06' E 024°58'4 3.8
2014-Jul-21 07:33N 60°10' E 024°59'  

Dump ship's entire track history